DW9711 Weather Reports


time (UTC)temp
F
wind
direction
speed
knots
gust
knots
rain 1hr
in
rain 24hr
in
rain mn
in
humidity
%
barometer
mb
20260510224517 72 15 2.6 7.8 0.00 0.00 0.00 55 1014.8
20260510224016 72 11 2.6 7.0 0.00 0.00 0.00 55 1014.7
20260510223516 72 21 3.5 9.6 0.00 0.00 0.00 54 1014.7
20260510223015 72 20 5.2 10.4 0.00 0.00 0.00 55 1014.7
20260510222515 72 10 2.6 10.4 0.00 0.00 0.00 55 1014.6
20260510222018 73 12 4.3 7.0 0.00 0.00 0.00 55 1014.7
20260510221515 73 17 3.5 8.7 0.00 0.00 0.00 55 1014.6
20260510221014 73 11 5.2 10.4 0.00 0.00 0.00 56 1014.6
20260510220515 73 355 5.2 10.4 0.00 0.00 0.00 54 1014.6
20260510220019 73 29 1.7 8.7 0.00 0.00 0.00 57 1014.6
20260510215514 73 360 4.3 11.3 0.00 0.00 0.00 56 1014.5
20260510215020 73 17 4.3 11.3 0.00 0.00 0.00 57 1014.5
20260510214513 74 11 7.0 10.4 0.00 0.00 0.00 56 1014.4
20260510214014 74 15 5.2 10.4 0.00 0.00 0.00 57 1014.4
20260510213516 74 15 5.2 9.6 0.00 0.00 0.00 58 1014.4
20260510213013 74 351 3.5 8.7 0.00 0.00 0.00 60 1014.3
20260510212513 74 16 2.6 8.7 0.00 0.00 0.00 60 1014.4
20260510212013 75 21 4.3 8.7 0.00 0.00 0.00 59 1014.4
20260510211513 75 327 3.5 9.6 0.00 0.00 0.00 59 1014.5
20260510211015 75 349 4.3 9.6 0.00 0.00 0.00 58 1014.4
20260510210512 76 28 4.3 8.7 0.00 0.00 0.00 59 1014.2
20260510210013 76 22 4.3 8.7 0.00 0.00 0.00 58 1014.3
20260510205517 76 19 5.2 10.4 0.00 0.00 0.00 59 1014.2
20260510205013 76 31 7.0 12.2 0.00 0.00 0.00 57 1014.2
20260510204516 77 43 5.2 12.2 0.00 0.00 0.00 57 1014.1
20260510204012 77 25 4.3 12.2 0.00 0.00 0.00 59 1014.2
20260510203512 78 22 5.2 12.2 0.00 0.00 0.00 59 1014.1
20260510203012 79 38 5.2 10.4 0.00 0.00 0.00 59 1014.1
20260510202511 79 12 5.2 10.4 0.00 0.00 0.00 59 1014.2
20260510202013 79 334 4.3 8.7 0.00 0.00 0.00 58 1014.2
20260510201511 80 355 2.6 9.6 0.00 0.00 0.00 58 1014.2
20260510201014 79 17 4.3 8.7 0.00 0.00 0.00 58 1014.2
20260510200511 80 343 2.6 7.0 0.00 0.00 0.00 56 1014.2
20260510200011 80 348 1.7 5.2 0.00 0.00 0.00 55 1014.2
20260510195509 80 11 0.0 3.5 0.00 0.00 0.00 55 1014.2
20260510195008 80 347 0.9 5.2 0.00 0.00 0.00 54 1014.3
20260510194507 80 5 1.7 5.2 0.00 0.00 0.00 57 1014.3
20260510194006 79 35 0.0 0.9 0.00 0.00 0.00 57 1014.5
20260510193506 79 22 0.0 0.9 0.00 0.00 0.00 54 1014.4
20260510193006 79 40 0.0 6.1 0.00 0.00 0.00 54 1014.4
20260510192505 79 36 1.7 6.1 0.00 0.00 0.00 54 1014.4
20260510192005 79 22 0.0 5.2 0.00 0.00 0.00 53 1014.3
20260510191506 79 21 0.0 4.3 0.00 0.00 0.00 54 1014.4
20260510191005 79 24 0.0 4.3 0.00 0.00 0.00 54 1014.4
20260510190504 79 18 0.0 5.2 0.00 0.00 0.00 56 1014.3
20260510190009 79 31 0.0 4.3 0.00 0.00 0.00 56 1014.3
20260510185504 78 34 0.0 0.9 0.00 0.00 0.00 54 1014.4
20260510185004 78 21 0.0 0.9 0.00 0.00 0.00 56 1014.3
20260510184504 78 335 0.0 4.3 0.00 0.00 0.00 55 1014.4
20260510184003 78 344 0.0 4.3 0.00 0.00 0.00 57 1014.3
20260510183503 78 333 0.0 5.2 0.00 0.00 0.00 56 1014.3
20260510183003 78 319 0.0 5.2 0.00 0.00 0.00 53 1014.3
20260510182502 79 338 0.9 5.2 0.00 0.00 0.00 56 1014.2
20260510182001 79 14 0.9 5.2 0.00 0.00 0.00 55 1014.3
20260510181602 78 337 0.0 3.5 0.00 0.00 0.00 55 1014.2
20260510181059 78 360 0.0 5.2 0.00 0.00 0.00 57 1014.3
20260510180558 78 342 0.0 5.2 0.00 0.00 0.00 57 1014.4
20260510180109 77 340 0.9 4.3 0.00 0.00 0.00 57 1014.4
20260510175557 77 309 0.0 0.9 0.00 0.00 0.00 55 1014.4
20260510175057 77 309 0.0 0.9 0.00 0.00 0.00 56 1014.5
20260510174559 78 335 0.0 0.9 0.00 0.00 0.00 54 1014.4
20260510174058 77 12 0.0 6.1 0.00 0.00 0.00 56 1014.4
20260510173554 77 355 0.0 6.1 0.00 0.00 0.00 56 1014.5
20260510173054 77 22 0.0 3.5 0.00 0.00 0.00 56 1014.6
20260510172556 77 340 0.0 5.2 0.00 0.00 0.00 56 1014.7
20260510172054 77 336 0.9 5.2 0.00 0.00 0.00 57 1014.7
20260510171552 77 11 0.9 5.2 0.00 0.00 0.00 56 1014.8
20260510171052 76 40 0.0 6.1 0.00 0.00 0.00 58 1014.8
20260510170552 76 325 0.9 6.1 0.00 0.00 0.00 55 1014.9
20260510170053 77 17 0.9 6.1 0.00 0.00 0.00 56 1014.9
20260510165551 76 35 0.9 5.2 0.00 0.00 0.00 55 1014.9
20260510165050 76 11 0.9 5.2 0.00 0.00 0.00 57 1014.9
20260510164555 76 12 0.0 5.2 0.00 0.00 0.00 55 1014.9
20260510164048 76 351 0.0 5.2 0.00 0.00 0.00 56 1014.9
20260510163548 75 19 1.7 5.2 0.00 0.00 0.00 57 1015.0
20260510163050 76 344 0.0 1.7 0.00 0.00 0.00 54 1014.9
20260510162548 75 342 0.0 6.1 0.00 0.00 0.00 57 1014.9
20260510162047 76 289 1.7 6.1 0.00 0.00 0.00 54 1014.9
20260510161546 75 5 0.9 4.3 0.00 0.00 0.00 54 1014.8
20260510161046 75 319 0.0 3.5 0.00 0.00 0.00 56 1014.7
20260510160546 75 346 0.0 5.2 0.00 0.00 0.00 59 1014.7
20260510160046 75 355 0.9 5.2 0.00 0.00 0.00 58 1014.7
20260510155545 74 327 1.7 6.1 0.00 0.00 0.00 61 1014.6
20260510155044 75 313 3.5 6.1 0.00 0.00 0.00 60 1014.6
20260510154550 76 350 2.6 6.1 0.00 0.00 0.00 60 1014.5
20260510154041 75 21 0.9 6.1 0.00 0.00 0.00 60 1014.4
20260510153540 75 338 1.7 7.0 0.00 0.00 0.00 60 1014.3
20260510153040 76 329 2.6 7.8 0.00 0.00 0.00 59 1014.3
20260510152541 76 9 2.6 7.0 0.00 0.00 0.00 60 1014.2
20260510152037 76 338 1.7 5.2 0.00 0.00 0.00 57 1014.1
20260510151539 76 337 2.6 5.2 0.00 0.00 0.00 55 1014.0
20260510151036 76 309 0.9 4.3 0.00 0.00 0.00 53 1014.0
20260510150536 76 323 0.9 4.3 0.00 0.00 0.00 51 1013.9
20260510150038 76 292 0.0 2.6 0.00 0.00 0.00 53 1013.9
20260510145538 76 244 0.0 1.7 0.00 0.00 0.00 55 1013.9
20260510145033 76 232 0.0 3.5 0.00 0.00 0.00 54 1013.8
20260510144544 76 269 0.0 3.5 0.00 0.00 0.00 52 1013.8
20260510144032 76 200 0.0 3.5 0.00 0.00 0.00 56 1013.7
20260510143529 75 204 0.0 2.6 0.00 0.00 0.00 54 1013.7
20260510143028 75 207 0.0 2.6 0.00 0.00 0.00 54 1013.6
20260510142528 75 207 0.9 2.6 0.00 0.00 0.00 56 1013.5
20260510142028 74 205 0.0 1.7 0.00 0.00 0.00 55 1013.5
20260510141526 74 204 0.0 1.7 0.00 0.00 0.00 57 1013.6
20260510141025 73 205 0.0 2.6 0.00 0.00 0.00 58 1013.5
20260510140523 73 205 0.0 4.3 0.00 0.00 0.00 61 1013.5
20260510140022 72 207 0.9 2.6 0.00 0.00 0.00 59 1013.5
20260510135521 71 204 0.0 2.6 0.00 0.00 0.00 62 1013.5
20260510135020 71 211 0.0 1.7 0.00 0.00 0.00 64 1013.5
20260510134519 70 216 0.0 0.9 0.00 0.00 0.00 66 1013.5
20260510134017 70 224 0.0 0.0 0.00 0.00 0.00 65 1013.6
20260510133515 69 223 0.0 0.0 0.00 0.00 0.00 65 1013.6
20260510133014 68 223 0.0 0.0 0.00 0.00 0.00 67 1013.6
20260510132513 68 224 0.0 0.0 0.00 0.00 0.00 69 1013.6
20260510132014 67 226 0.0 0.0 0.00 0.00 0.00 70 1013.6
20260510131525 66 226 0.0 0.0 0.00 0.00 0.00 70 1013.7
20260510131010 66 227 0.0 0.0 0.00 0.00 0.00 71 1013.6
20260510130514 66 227 0.0 0.0 0.00 0.00 0.00 70 1013.7
20260510130010 65 227 0.0 0.0 0.00 0.00 0.00 71 1013.6
20260510125509 65 232 0.0 0.0 0.00 0.00 0.00 72 1013.6
20260510125007 64 232 0.0 0.0 0.00 0.00 0.00 72 1013.5
20260510124506 63 232 0.0 0.0 0.00 0.00 0.00 74 1013.4
20260510124004 63 234 0.0 0.0 0.00 0.00 0.00 74 1013.2
20260510123505 62 236 0.0 0.0 0.00 0.00 0.00 74 1013.3
20260510123003 62 236 0.0 0.0 0.00 0.00 0.00 73 1013.3
20260510122502 61 267 0.0 0.0 0.00 0.00 0.00 74 1013.3
20260510122003 61 267 0.0 0.0 0.00 0.00 0.00 74 1013.2
20260510121501 61 267 0.0 0.0 0.00 0.00 0.00 74 1013.3
20260510121100 60 267 0.0 0.0 0.00 0.00 0.00 73 1013.3
20260510120601 60 267 0.0 0.0 0.00 0.00 0.00 74 1013.2
20260510120059 60 267 0.0 0.0 0.00 0.00 0.00 74 1013.1
20260510115557 59 267 0.0 0.0 0.00 0.00 0.00 74 1013.0
20260510115057 59 267 0.0 0.0 0.00 0.00 0.00 76 1012.9
20260510114556 58 267 0.0 0.0 0.00 0.00 0.00 77 1012.8
20260510114054 57 272 0.0 0.0 0.00 0.00 0.00 78 1012.6
20260510113553 57 272 0.0 0.0 0.00 0.00 0.00 80 1012.6
20260510113059 57 333 0.0 0.0 0.00 0.00 0.00 80 1012.4
20260510112550 56 333 0.0 0.0 0.00 0.00 0.00 80 1012.3
20260510112050 56 333 0.0 0.0 0.00 0.00 0.00 80 1012.2
20260510111549 56 333 0.0 0.0 0.00 0.00 0.00 80 1012.2
20260510111049 56 333 0.0 0.0 0.00 0.00 0.00 80 1012.2
20260510110548 56 333 0.0 0.0 0.00 0.00 0.00 80 1012.1
20260510110046 56 333 0.0 0.0 0.00 0.00 0.00 80 1012.0
20260510105546 56 333 0.0 0.0 0.00 0.00 0.00 79 1012.0
20260510105044 57 333 0.0 0.0 0.00 0.00 0.00 79 1012.0
20260510104544 57 333 0.0 0.0 0.00 0.00 0.00 78 1012.0
20260510104043 57 333 0.0 0.0 0.00 0.00 0.00 77 1012.0
20260510103543 57 333 0.0 0.0 0.00 0.00 0.00 78 1012.0
20260510103043 57 333 0.0 0.0 0.00 0.00 0.00 78 1012.0
20260510102543 57 333 0.0 0.0 0.00 0.00 0.00 78 1012.0
20260510102042 57 333 0.0 0.0 0.00 0.00 0.00 78 1012.0
20260510101551 57 333 0.0 0.0 0.00 0.00 0.00 76 1012.1
20260510101041 57 333 0.0 0.0 0.00 0.00 0.00 77 1012.1
20260510100541 57 333 0.0 0.0 0.00 0.00 0.00 76 1012.3
20260510100041 57 333 0.0 0.0 0.00 0.00 0.00 76 1012.0
20260510095540 58 333 0.0 0.0 0.00 0.00 0.00 75 1012.2
20260510095038 58 333 0.0 0.0 0.00 0.00 0.00 74 1012.0
20260510094539 58 333 0.0 0.0 0.00 0.00 0.00 74 1011.9
20260510094038 58 333 0.0 0.0 0.00 0.00 0.00 74 1011.9
20260510093537 58 333 0.0 0.0 0.00 0.00 0.00 73 1011.8
20260510093036 59 330 0.0 0.0 0.00 0.00 0.00 71 1012.0
20260510092535 60 169 0.0 0.0 0.00 0.00 0.00 70 1011.4
20260510092035 60 169 0.0 0.0 0.00 0.00 0.00 70 1011.3
20260510091533 60 169 0.0 0.0 0.00 0.00 0.00 68 1011.2
20260510091033 60 169 0.0 0.0 0.00 0.00 0.00 70 1011.2
20260510090532 60 169 0.0 0.0 0.00 0.00 0.00 69 1011.0
20260510090032 60 169 0.0 0.0 0.00 0.00 0.00 69 1011.0
20260510085531 61 169 0.0 0.0 0.00 0.00 0.00 70 1010.9
20260510085030 61 169 0.0 0.0 0.00 0.00 0.00 67 1010.9
20260510084534 61 169 0.0 0.0 0.00 0.00 0.00 68 1010.8
20260510084028 61 169 0.0 0.0 0.00 0.00 0.00 67 1010.8
20260510083528 62 169 0.0 0.0 0.00 0.00 0.00 67 1010.9
20260510083025 62 169 0.0 0.0 0.00 0.00 0.00 67 1010.8
20260510082525 62 169 0.0 0.0 0.00 0.00 0.00 65 1010.7
20260510082025 62 169 0.0 0.0 0.00 0.00 0.00 65 1010.7
20260510081523 62 169 0.0 0.0 0.00 0.00 0.00 66 1010.6
20260510081022 63 169 0.0 0.0 0.00 0.00 0.00 65 1010.6
20260510080523 63 169 0.0 0.0 0.00 0.00 0.00 63 1010.5
20260510080021 63 169 0.0 0.0 0.00 0.00 0.00 63 1010.3
20260510075520 63 169 0.0 0.0 0.00 0.00 0.00 62 1010.4
20260510075020 63 169 0.0 0.0 0.00 0.00 0.00 62 1010.4
20260510074520 63 169 0.0 0.0 0.00 0.00 0.00 62 1010.4
20260510074020 63 169 0.0 0.0 0.00 0.00 0.00 62 1010.4
20260510073518 63 169 0.0 0.0 0.00 0.00 0.00 62 1010.4
20260510073024 64 169 0.0 0.0 0.00 0.00 0.00 63 1010.5
20260510072517 64 169 0.0 0.0 0.00 0.00 0.00 62 1010.6
20260510072020 64 169 0.0 0.0 0.00 0.00 0.00 61 1010.5
20260510071514 65 169 0.0 0.0 0.00 0.00 0.00 61 1010.6
20260510071014 65 169 0.0 0.0 0.00 0.00 0.00 59 1010.5
20260510070513 65 169 0.0 0.0 0.00 0.00 0.00 58 1010.6
20260510070013 65 169 0.0 0.0 0.00 0.00 0.00 57 1010.6
20260510065513 65 169 0.0 0.0 0.00 0.00 0.00 57 1010.6
20260510065012 65 169 0.0 0.0 0.00 0.00 0.00 57 1010.5
20260510064532 65 168 0.0 0.0 0.00 0.00 0.00 57 1010.4
20260510064012 65 168 0.0 0.0 0.00 0.00 0.00 57 1010.4
20260510063510 65 168 0.0 0.0 0.00 0.00 0.00 57 1010.4
20260510063010 65 168 0.0 0.0 0.00 0.00 0.00 57 1010.3
20260510062510 65 168 0.0 0.0 0.00 0.00 0.00 57 1010.3
20260510062010 66 168 0.0 0.0 0.00 0.00 0.00 57 1010.2
20260510061509 66 168 0.0 0.0 0.00 0.00 0.00 57 1010.3
20260510061009 66 168 0.0 0.0 0.00 0.00 0.00 57 1010.3
20260510060507 66 168 0.0 0.0 0.00 0.00 0.00 57 1010.3
20260510060010 66 168 0.0 0.0 0.00 0.00 0.00 56 1010.4
20260510055506 66 168 0.0 0.0 0.00 0.00 0.00 56 1010.3
20260510055005 67 168 0.0 0.0 0.00 0.00 0.00 55 1010.3
20260510054505 67 168 0.0 0.0 0.00 0.00 0.00 55 1010.3
20260510054004 67 168 0.0 0.0 0.00 0.00 0.00 55 1010.2
20260510053504 67 168 0.0 0.0 0.00 0.00 0.00 54 1010.2
20260510053007 67 168 0.0 0.0 0.00 0.00 0.00 55 1010.2
20260510052503 67 168 0.0 0.0 0.00 0.00 0.00 54 1010.2
20260510052002 67 168 0.0 0.0 0.00 0.00 0.00 55 1010.2
20260510051502 67 168 0.0 0.0 0.00 0.00 0.00 55 1010.1
20260510051005 67 168 0.0 0.0 0.00 0.00 0.00 55 1010.1
20260510050501 67 168 0.0 0.0 0.00 0.00 0.00 56 1010.1
20260510045604 67 168 0.0 0.0 0.00 0.00 0.00 55 1010.1
20260510045059 67 168 0.0 0.0 0.00 0.00 0.00 55 1010.1
20260510044607 67 168 0.0 0.0 0.00 0.00 0.00 55 1010.1
20260510044058 67 168 0.0 0.0 0.00 0.00 0.00 56 1010.0
20260510043559 67 168 0.0 0.0 0.00 0.00 0.00 56 1010.1
20260510043058 67 168 0.0 0.0 0.00 0.00 0.00 55 1010.0
20260510042559 67 168 0.0 0.0 0.00 0.00 0.00 55 1009.9
20260510042058 67 168 0.0 0.0 0.00 0.00 0.00 54 1009.9
20260510041558 67 168 0.0 0.0 0.00 0.00 0.00 55 1009.9
20260510041057 67 168 0.0 0.0 0.00 0.00 0.00 55 1009.9
20260510040559 68 168 0.0 0.0 0.00 0.00 0.00 55 1009.9
20260510040058 68 168 0.0 0.0 0.00 0.00 0.00 55 1010.0
20260510035558 68 168 0.0 0.0 0.00 0.00 0.00 55 1010.0
20260510035057 68 168 0.0 0.0 0.00 0.00 0.00 55 1010.0
20260510034617 68 168 0.0 0.0 0.00 0.00 0.00 55 1010.0
20260510034057 68 168 0.0 0.0 0.00 0.00 0.00 55 1010.0
20260510033556 68 168 0.0 0.0 0.00 0.00 0.00 56 1010.1
20260510033100 68 168 0.0 0.0 0.00 0.00 0.00 55 1010.1
20260510032556 68 168 0.0 0.0 0.00 0.00 0.00 55 1010.1
20260510032056 67 167 0.0 0.0 0.00 0.00 0.00 57 1010.1
20260510031556 68 167 0.0 0.0 0.00 0.00 0.00 58 1010.1
20260510031055 68 167 0.0 0.0 0.00 0.00 0.00 58 1010.1
20260510030556 67 167 0.0 0.0 0.00 0.00 0.00 58 1010.0
20260510030059 67 167 0.0 0.0 0.00 0.00 0.00 59 1010.0
20260510025554 67 167 0.0 0.0 0.00 0.00 0.00 58 1010.0
20260510025054 67 167 0.0 0.0 0.00 0.00 0.00 61 1009.9
20260510024557 66 167 0.0 0.0 0.00 0.00 0.00 60 1009.8
20260510024052 66 167 0.0 0.0 0.00 0.00 0.00 62 1009.9
20260510023552 66 167 0.0 0.0 0.00 0.00 0.00 64 1009.8
20260510023052 67 167 0.0 0.0 0.00 0.00 0.00 64 1009.8
20260510022554 67 167 0.0 0.0 0.00 0.00 0.00 61 1009.8
20260510022051 67 167 0.0 0.0 0.00 0.00 0.00 61 1009.7
20260510021600 68 167 0.0 0.0 0.00 0.00 0.00 62 1009.7
20260510021050 68 167 0.0 0.0 0.00 0.00 0.00 60 1009.6
20260510020550 68 167 0.0 0.0 0.00 0.00 0.00 60 1009.6
20260510020049 68 167 0.0 0.0 0.00 0.00 0.00 59 1009.6
20260510015548 68 167 0.0 0.0 0.00 0.00 0.00 58 1009.4
20260510015049 69 167 0.0 0.0 0.00 0.00 0.00 58 1009.3
20260510014552 69 167 0.0 0.0 0.00 0.00 0.00 58 1009.2
20260510014046 69 167 0.0 0.0 0.00 0.00 0.00 56 1009.2
20260510013547 70 167 0.0 0.0 0.00 0.00 0.00 57 1009.1
20260510013045 70 167 0.0 0.0 0.00 0.00 0.00 57 1009.0
20260510012545 71 167 0.0 0.0 0.00 0.00 0.00 57 1009.0
20260510012045 71 167 0.0 0.0 0.00 0.00 0.00 56 1008.9
20260510011545 71 167 0.0 0.0 0.00 0.00 0.00 54 1008.9
20260510011044 72 167 0.0 0.0 0.00 0.00 0.00 53 1008.8
20260510010544 73 167 0.0 0.0 0.00 0.00 0.00 51 1008.7
20260510010047 73 167 0.0 0.0 0.00 0.00 0.00 50 1008.7
20260510005545 74 167 0.0 0.0 0.00 0.00 0.00 50 1008.6
20260510005044 74 167 0.0 0.0 0.00 0.00 0.00 49 1008.5
20260510004544 75 167 0.0 0.0 0.00 0.00 0.00 47 1008.5
20260510004043 75 167 0.0 0.0 0.00 0.00 0.00 46 1008.4
20260510003544 75 167 0.0 0.0 0.00 0.00 0.00 46 1008.4
20260510003058 76 225 0.0 0.0 0.00 0.00 0.00 45 1008.4
20260510002543 76 225 0.0 0.0 0.00 0.00 0.00 44 1008.3
20260510002043 77 225 0.0 0.0 0.00 0.00 0.00 42 1008.3
20260510001543 77 225 0.0 0.0 0.00 0.00 0.00 41 1008.2
20260510001043 78 225 0.0 0.0 0.00 0.00 0.00 40 1008.2
20260510000544 78 225 0.0 0.0 0.00 0.00 0.00 39 1008.1
20260510000046 79 225 0.0 0.0 0.00 0.00 0.00 38 1008.1
20260509235543 80 225 0.0 0.0 0.00 0.00 0.00 36 1008.0
20260509235043 80 244 0.0 0.0 0.00 0.00 0.00 34 1007.9
20260509234543 81 244 0.0 0.0 0.00 0.00 0.00 33 1007.9
20260509234042 80 244 0.0 0.0 0.00 0.00 0.00 34 1007.8
20260509233543 80 244 0.0 0.0 0.00 0.00 0.00 34 1007.9
20260509233042 81 244 0.0 0.0 0.00 0.00 0.00 34 1007.9
20260509232542 81 244 0.0 0.0 0.00 0.00 0.00 33 1007.9
20260509232042 80 244 0.0 0.0 0.00 0.00 0.00 34 1007.9
20260509231542 81 244 0.0 0.0 0.00 0.00 0.00 32 1008.0
20260509231041 81 244 0.0 0.0 0.00 0.00 0.00 33 1008.0
20260509230542 81 250 0.0 0.0 0.00 0.00 0.00 34 1008.0
20260509230041 81 210 0.0 0.0 0.00 0.00 0.00 34 1008.1
20260509225543 81 210 0.0 0.0 0.00 0.00 0.00 33 1008.0
20260509225041 81 213 0.0 0.0 0.00 0.00 0.00 35 1008.0